STARLINK-2128 (47404 NORAD) Tracking and Keplerian Element Data

This shows tracking and keplerian element data for the satellite.

Feedback or suggestion? Click here.




ElementValue
Catalog47404
NameSTARLINK-2128
Epoch Orbit1436
Epoch Day106.25002315
Epoch Year2021
RAAN150.7663
Inclination53.0532
Eccentricity0.0004165
Argument of Perigee4.7947
Mean Anonmoly58.5932
Mean Motion15.62740779
Decay Rate-0.00018575
L11 47404U 21005BH 21106.25002315 -.00018575 00000-0 -19746-3 0 9993
L22 47404 53.0532 150.7663 0004165 4.7947 58.5932 15.62740779 14368

Live tracking and technical data element details for STARLINK-2128 (NORAD 47404). STARLINK-2128 can be tracked NOW for your location showing map with azimuth and elevation plus other details from your city location.

Track the satellite on the map from your city or location and see movement details for azimuth, elevation, latitude, longitude, range, height, and movement on the map or in text.







IsCatalogInMostPopularTable: catalog: 47404, numindb: 21
Update: records affected: 1



GetName: 47404 STARLINK-2128

Hit Count: updated at: Fri, 16 Apr 2021 11:38:20 GMT